Terminal Aerodrome Forecast
Issued by NWS

Home | Current Version | Previous Version | Text Only | Print | Product List | Glossary On
Versions: 1 2 3 4 5 6 7 8 9 10 11 12 13 14 15 16 17 18 19 20 21 22 23
000
FTUS44 KLZK 022300
TAFHRO
TAF
KHRO 022336Z 0300/0324 29004KT P6SM VCTS FEW025 SCT040CB
      TEMPO 0300/0302 34010G20KT -TSRA BKN025 OVC035CB
     FM030200 23004KT 6SM -TSRA BKN015CB OVC040
     FM030800 30004KT P6SM VCSH SCT025 SCT035
      TEMPO 0308/0312 3SM BR
     FM031600 32006KT P6SM VCTS SCT035 BKN050CB=

USA.gov is the U.S. government's official web portal to all federal, state and local government web resources and services.